Hourly Data Report for September 11, 2017

All times are specified in Local Standard Time (LST). Add 1 hour to adjust for Daylight Saving Time where and when it is observed.

CLYDE RIVER A
NUNAVUT

70°29'09.000" N
68°31'01.000" W
26.50 m
2400804
71090
YCY

Download Data

Hourly Data (September 2017)
Hourly Data Report for September 11, 2017
Temp Definition
°C
Dew Point Temp Definition
°C
Rel Hum Definition
%
Wind Dir Definition
10's deg

Wind Spd Definition
km/h
Visibility Definition
km
Stn Press Definition
kPa
Hmdx Definition


Wind Chill Definition


Weather Definition


TIME
00:00 Legend Double Dagger -0.2 -4.2 75 22 9 16.1 99.73   -3 LegendNANA
01:00 Legend Double Dagger 0.1 -4.7 70 19 8 16.1 99.76     LegendNANA
02:00 Legend Double Dagger 0.7 -5.8 62 LegendMM 11 16.1 99.80     LegendNANA
03:00 Legend Double Dagger 0.6 -4.8 67 28 11 16.1 99.82     LegendNANA
04:00 Legend Double Dagger 0.8 -4.5 68 LegendMM 4 16.1 99.87     LegendNANA
05:00 Legend Double Dagger 0.5 -3.9 73 LegendMM 4 16.1 99.89     LegendNANA
06:00 Legend Double Dagger 1.4 -3.1 72 22 9 16.1 99.91     LegendNANA
07:00 Legend Double Dagger 1.6 -3.3 70 22 9 16.1 99.94     LegendNANA
08:00 Legend Double Dagger 1.7 -4.2 65   0 16.1 99.99     LegendNANA
09:00 Legend Double Dagger 2.1 -2.9 70   0 16.1 100.01     LegendNANA
10:00 Legend Double Dagger 2.6 -4.1 62 24 4 16.1 100.05     LegendNANA
11:00 Legend Double Dagger 2.8 -3.3 64 LegendMM 5 16.1 100.10     LegendNANA
12:00 Legend Double Dagger 2.6 -2.8 68 11 8 16.1 100.13     LegendNANA
13:00 Legend Double Dagger 2.6 -2.9 67 12 11 16.1 100.16     LegendNANA
14:00 Legend Double Dagger 2.7 -2.2 70 10 11 16.1 100.20     LegendNANA
15:00 Legend Double Dagger 2.6 -2.4 70 13 15 16.1 100.25     LegendNANA
16:00 Legend Double Dagger 2.4 -1.2 77 9 13 16.1 100.31     LegendNANA
17:00 Legend Double Dagger 1.8 -0.9 82 4 15 16.1 100.37     LegendNANA
18:00 Legend Double Dagger 0.9 -0.6 90 3 13 16.1 100.42     LegendNANA
19:00 Legend Double Dagger 0.3 -0.9 92 4 5 16.1 100.45     LegendNANA
20:00 Legend Double Dagger 0.3 -0.9 92   0 16.1 100.48     LegendNANA
21:00 Legend Double Dagger 0.2 -0.8 93   0 16.1 100.50     LegendNANA
22:00 Legend Double Dagger 0.2 -0.8 93   0 16.1 100.50     LegendNANA
23:00 Legend Double Dagger 0.3 -0.9 92 25 8 16.1 100.50     Rain

Notes on Data Quality.

Legend

  • E = Estimated
  • M = Missing
  • NA = Not Available
  • ‡ = Partner data that is not subject to review by the National Climate Archives
Date modified: